Content
SEND FEEDBACK

Daily
Averages
Monthly
Summary
United States of America

ST. LOUIS - MEMORIAL PLAZA, MISSOURI


Home > North America > United States > Missouri
Elevation: 620 feet     Latitude: 38 38N     Longitude: 090 12W

WEATHER
 
SELECT A DAY
Number of Records: 188,419;   Date Range: 1/1/95 - 9/29/14
 
SHARE

PRINT THIS DATA

[ ← Previous Day ]
WEATHER ALMANAC - FEBRUARY 12, 2013
[ Next Day → ]
[ °C ]   °F
Weather ElementAverageHighLow
Temperature37 °F45 °F (12:53 pm)26.1 °F (5:53 am)
Dewpoint27.4 °F32 °F (8:53 pm)23 °F (5:53 am)
Humidity70.2 %92 % (6:53 am)49 % (1:53 pm)
Barometer30.08 in30.19 in (7:53 am)29.96 in (8:53 pm)
Wind Speed1.3 mph5.8 mph (9:53 am)
Weather ElementAverage
Visibility10 mi
Wind DirectionNNE (38.7 °)

Weather ElementTotal
Precipitation---
Heating Degree Days29.5 (Base 65)
Averaged from 23 records on February 12, 2013
WEATHER CONDITIONS BREAKOUT
WIND DIRECTION BREAKOUT
WEATHER BY HOUR - FEBRUARY 12, 2013
[ °C ]   °F
Local TimeTemperatureDewpointHumidityBarometerVisibilityWind DirectionWind SpeedGust SpeedPrecipitationEventsConditions
1:53 AM28.9 °F24.1 °F82 %30.17 in10.0 miCalmClear
2:53 AM28.0 °F24.1 °F85 %30.17 in10.0 miCalmClear
3:53 AM28.0 °F24.1 °F85 %30.17 in10.0 miCalmClear
4:53 AM27.0 °F24.1 °F89 %30.17 in10.0 miCalmClear
5:53 AM26.1 °F23.0 °F88 %30.17 in10.0 miCalmClear
6:53 AM26.1 °F24.1 °F92 %30.16 in10.0 miCalmClear
7:53 AM28.9 °F27.0 °F92 %30.19 in10.0 miCalmClear
8:53 AM34.0 °F28.0 °F79 %30.19 in10.0 miCalmClear
9:53 AM37.9 °F28.0 °F68 %30.14 in9.0 miNNE (20°)5.8 mphClear
10:53 AM41.0 °F27.0 °F57 %30.14 in10.0 miNNW (340°)4.6 mphClear
11:53 AM44.1 °F28.0 °F53 %30.12 in10.0 miCalmClear
12:53 PM45.0 °F28.0 °F52 %30.12 in10.0 miCalmClear
1:53 PM45.0 °F27.0 °F49 %30.08 in10.0 miCalmClear
2:53 PM45.0 °F27.0 °F49 %30.06 in10.0 miCalmClear
3:53 PM45.0 °F28.0 °F52 %30.03 in10.0 miCalmClear
4:53 PM45.0 °F27.0 °F49 %30.03 in10.0 miCalmClear
5:53 PM41.0 °F28.9 °F62 %30.01 in10.0 miNE (50°)3.5 mphPartly Cloudy
6:53 PM41.0 °F28.0 °F60 %29.98 in10.0 miSSE (150°)3.5 mphClear
7:53 PM39.0 °F30.0 °F70 %29.98 in10.0 miCalmScattered Clouds
8:53 PM39.0 °F32.0 °F76 %29.96 in10.0 miNNE (20°)3.5 mphOvercast
9:53 PM39.0 °F30.9 °F73 %29.96 in10.0 miCalmOvercast
10:53 PM39.0 °F30.9 °F73 %29.97 in10.0 miNorth (10°)3.5 mphOvercast
11:53 PM37.0 °F30.9 °F79 %29.96 in10.0 miWNW (300°)4.6 mphOvercast
Hourly data recorded from KCPS, located miles away from St. Louis - Memorial Plaza, Missouri







STORIES FROM OUR PARTNERS